DUKOVANY Weather Reports


Display with metric or nautical units.
time (UTC)temp
F
wind
direction
speed
MPH
gust
MPH
rain 1hr
in
rain 24hr
in
rain mn
in
humidity
%
barometer
mb
20260507182048 61 300 5.0 0.0 0.00 0.00 0.00 48
20260507172048 63 290 12.0 0.0 0.00 0.00 0.00 42
20260507162351 64 330 7.0 0.0 0.00 0.00 0.00 48
20260507152049 63 360 9.0 0.0 0.00 0.00 0.00 51
20260507142051 66 220 9.0 0.0 0.00 0.00 0.00 39
20260507132151 63 180 9.0 0.0 0.00 0.00 0.00 55
20260507122048 66 230 16.0 0.0 0.00 0.00 0.00 37
20260507112107 66 190 12.0 0.0 0.00 0.00 0.00 42
20260507102249 64 210 9.0 0.0 0.00 0.00 0.00 48
20260507092048 61 240 9.0 0.0 0.00 0.00 0.00 51
20260507082048 59 280 14.0 0.0 0.00 0.00 0.00 62
20260507072049 57 240 14.0 0.0 0.00 0.00 0.00 62
20260507062049 55 260 7.0 0.0 0.00 0.00 0.00 71
20260507052048 55 240 14.0 0.0 0.00 0.00 0.00 71
20260507042251 54 230 9.0 0.0 0.00 0.00 0.00 81
20260507032048 54 240 7.0 0.0 0.00 0.00 0.00 81
20260507022046 54 230 7.0 0.0 0.00 0.00 0.00 81
20260507012148 54 240 7.0 0.0 0.00 0.00 0.00 87
20260507002048 55 260 12.0 0.0 0.00 0.00 0.00 76
20260506232049 57 290 12.0 0.0 0.00 0.00 0.00 71
20260506222320 59 260 9.0 0.0 0.00 0.00 0.00 72
20260506212110 61 140 7.0 0.0 0.00 0.00 0.00 59
20260506202122 64 130 9.0 0.0 0.00 0.00 0.00 55
20260506192241 66 120 12.0 0.0 0.00 0.00 0.00 48